Weather History for KISP - December, 2013

Change the Weather History Date:

Wednesday, December 25, 2013

  Actual Average Record
Temperature  
Mean Temperature 24 °F 33 °F  
Max Temperature 28 °F 40 °F 56 °F (1994)
Min Temperature 20 °F 26 °F 12 °F (1989)
Degree Days  
Heating Degree Days 41 32  
Month to date heating degree days 679 714  
Since 1 July heating degree days 1643 1730  
Cooling Degree Days 0 0  
Month to date cooling degree days 0 0  
Year to date cooling degree days 957 787  
Moisture  
Dew Point 9 °F    
Average Humidity 52    
Maximum Humidity 62    
Minimum Humidity 42    
Precipitation  
Precipitation 0.00 in 0.13 in 1.29 in (2002)
Month to date precipitation 4.24 3.35  
Year to date precipitation 37.66 45.53  
Snow  
Snow 0.00 in 0.20 in 0.00 in (2006)
Month to date snowfall 8.1 3.9  
Since 1 July snowfall 8.4 4.4  
Snow Depth 1.00 in    
Sea Level Pressure  
Sea Level Pressure 30.45 in    
Wind  
Wind Speed 8 mph (NNW)    
Max Wind Speed 24 mph    
Max Gust Speed 28 mph    
Visibility 10 miles    
Events      
T = Trace of Precipitation, MM = Missing Value Source: NWS Daily Summary

Daily Weather History Graph

Daily Weather History Graph

Search for Another Location

Airport or City:

Trip Planner

Search our weather history database for the weather conditions in past years. The results will help you decide how hot, cold, wet, or windy it might be!

Date:

Astronomy

Dec. 25, 2013 Rise Set
Actual Time 7:15 AM EST 4:30 PM EST
Civil Twilight 6:44 AM EST 5:01 PM EST
Nautical Twilight 6:09 AM EST 5:35 PM EST
Astronomical Twilight 5:36 AM EST 6:09 PM EST
Moon No Moon Rise 11:34 AM EST (12/25)
Length of Visible Light 10h 17m
Length of Day
9h 15m
Waning Gibbous, 49% of the Moon is Illuminated
Dec 25
Waning Gibbous
Jan 1
New
Jan 7
First Quarter
Jan 15
Full
Jan 24
Last Quarter

Hourly Weather History & Observations

Time (EST) Temp. Windchill Dew Point Humidity Pressure Visibility Wind Dir Wind Speed Gust Speed Precip Events Conditions
12:56 AM 26.1 °F 13.1 °F 9.0 °F 49% 30.30 in 10.0 mi NW 17.3 mph 25.3 mph N/A   Partly Cloudy
1:56 AM 24.1 °F 11.0 °F 9.0 °F 53% 30.33 in 10.0 mi WNW 16.1 mph 23.0 mph N/A   Clear
2:56 AM 21.9 °F 9.8 °F 8.1 °F 55% 30.36 in 10.0 mi NW 12.7 mph - N/A   Clear
3:56 AM 21.9 °F 9.2 °F 8.1 °F 55% 30.38 in 10.0 mi NW 13.8 mph - N/A   Clear
4:56 AM 19.9 °F 8.6 °F 7.0 °F 57% 30.40 in 10.0 mi NW 10.4 mph 17.3 mph N/A   Clear
5:56 AM 19.9 °F 7.9 °F 7.0 °F 57% 30.42 in 10.0 mi NNW 11.5 mph - N/A   Clear
6:56 AM 19.9 °F 7.3 °F 8.1 °F 60% 30.44 in 10.0 mi NNW 12.7 mph - N/A   Partly Cloudy
7:56 AM 19.9 °F 8.6 °F 9.0 °F 62% 30.46 in 10.0 mi NW 10.4 mph - N/A   Partly Cloudy
8:56 AM 21.9 °F 11.0 °F 8.1 °F 55% 30.49 in 10.0 mi NNW 10.4 mph - N/A   Partly Cloudy
9:56 AM 23.0 °F 10.6 °F 8.1 °F 53% 30.50 in 10.0 mi NNW 13.8 mph - N/A   Partly Cloudy
10:56 AM 24.1 °F 12.5 °F 9.0 °F 53% 30.48 in 10.0 mi NNW 12.7 mph - N/A   Partly Cloudy
11:56 AM 25.0 °F 12.6 °F 9.0 °F 51% 30.47 in 10.0 mi NNW 15.0 mph - N/A   Scattered Clouds
12:56 PM 25.0 °F 14.8 °F 8.1 °F 49% 30.48 in 10.0 mi NNW 10.4 mph - N/A   Mostly Cloudy
1:56 PM 25.0 °F 16.3 °F 8.1 °F 49% 30.48 in 10.0 mi NNW 8.1 mph - N/A   Mostly Cloudy
2:56 PM 26.1 °F 19.4 °F 7.0 °F 44% 30.49 in 10.0 mi North 5.8 mph - N/A   Mostly Cloudy
3:56 PM 26.1 °F 21.9 °F 7.0 °F 44% 30.51 in 10.0 mi NNE 3.5 mph - N/A   Mostly Cloudy
4:56 PM 26.1 °F - 7.0 °F 44% 30.50 in 10.0 mi Calm Calm - N/A   Mostly Cloudy
5:56 PM 26.1 °F 20.5 °F 9.0 °F 49% 30.51 in 10.0 mi East 4.6 mph - N/A   Mostly Cloudy
6:56 PM 25.0 °F 19.3 °F 9.0 °F 51% 30.51 in 10.0 mi ESE 4.6 mph - N/A   Mostly Cloudy
7:56 PM 25.0 °F - 9.0 °F 51% 30.51 in 10.0 mi Calm Calm - N/A   Overcast
8:56 PM 25.0 °F 20.7 °F 10.0 °F 53% 30.49 in 10.0 mi ENE 3.5 mph - N/A   Overcast
9:56 PM 25.0 °F 20.7 °F 10.0 °F 53% 30.48 in 10.0 mi ENE 3.5 mph - N/A   Overcast
10:56 PM 26.1 °F - 10.9 °F 53% 30.46 in 10.0 mi Calm Calm - N/A   Overcast
11:56 PM 26.1 °F - 12.9 °F 58% 30.44 in 10.0 mi Calm Calm - N/A   Mostly Cloudy